COSMOS 970 DEB

Satellite information

Favourite Embed

Satellite Type and Status

DEBRISIN ORBIT

Key statistics

Satellite COSMOS 970 DEB at a glance.

Uptime

17306

Days in orbit

Revolutions

≈ 13.8

Per day

Orbit

LEO

Low Earth Orbit

Inclination

65.4

Latest

Satellite identification and parameters

Extended collection of information and parameters for COSMOS 970 DEB.

Object identification

Identified? True

Debris? True

Object name: COSMOS 970 DEB

International designator: 1977-121BE

Object number (NORAD): 14442

Object ID (CCSDS): 14442

Country: COMMONWEALTH OF INDEPENDENT STATES (CIS)

Current information (Y/N): Y

RCS size: SMALL

Orbital parameters

Period: 104.046 minutes

Inclination: 65.3692 deg

SMA: 7327.837 km

Apoapsis: 960.322 km

Periapsis: 939.083 km

RAAN: 56.8201 deg

Eccentricy: 0.0014492

Argument of periapsis: 248.2367 deg

Mean anomaly: 226.8156 deg

Mean motion: 13.84009462 rev/day

Mean motion (dot): 0.00002401 rev/day2

B* drag term: 0.0022314 1/REarth

Two-line elements (TLE)

Creation date: May 9, 2025, 2:46 a.m.

Reference frame: TEME

Reference center: EARTH

Epoch: May 8, 2025, 2:49 a.m. UTC

TLE line 0: 0 COSMOS 970 DEB

TLE line 1: 1 14442U 77121BE 25128.11781742 .00002401 00000-0 22314-2 0 9993

TLE line 2: 2 14442 65.3692 56.8201 0014492 248.2367 226.8156 13.84009462345719

Live tracking on map

Real-time ground track for satellite COSMOS 970 DEB.

In-orbit conjunctions

A list of the most updated potential collisions computed for object COSMOS 970 DEB.

Target Orbit TCA Probability of collision Miss distance Type
SL-8 R/B LEO 2025-03-30 14:08:55 0.0003819137 208.0 (m) ROCKET BODY
SL-8 R/B LEO 2024-12-21 11:25:13 0.0001047225 753.0 (m) ROCKET BODY
COSMOS 887 LEO 2024-06-19 17:49:03 0.0001895947 624.0 (m) PAYLOAD

Associated space launch

Second generation ASAT satellite

COSMOS 970 DEB was lifted into orbit during the mission ‘Tsiklon-2 | IS-A 8’, on board a Tsiklon-2 space rocket.

The launch took place on Dec. 21, 1977, 10:35 a.m. from 90.

For more information about the launch, click the button.

Launch to space Tsiklon-2 | IS-A 8
Tsiklon-2 | IS-A 8

Agency: N/A

Status: Launch Successful

Launch date: Dec. 21, 1977, 10:35 a.m. UTC

Rocket: Tsiklon-2

Launch pad: 90

Location: Baikonur Cosmodrome, Republic of Kazakhstan

...

Latest news about this satellite

There are no fresh news available about this satellite. Check back as we update our databases every day.


Newsletter sign-up

Weekly statistics, charts and insights to help you stay on top of the space industry.